Orbital Elements at Epoch 2459000.5 (2020-May-31.0) TDB
Reference: JPL 19 (heliocentric ecliptic J2000)
Element | Value | Uncertainty (1-sigma) | Units |
e | .1609796974414861 | 7.0047e-08 | |
a | 2.628361607301058 | 1.4701e-08 | au |
q | 2.205248750990916 | 1.8314e-07 | au |
i | 13.28006787467379 | 7.9541e-06 | deg |
node | 349.1132257378692 | 1.8833e-05 | deg |
peri | 192.7751405524076 | 2.4135e-05 | deg |
M | 15.92200873657447 | 1.3154e-05 | deg |
tp | 2458931.663075893818 (2020-Mar-23.16307589) | 5.682e-05 | TDB |
period | 1556.417477733214 4.26 | 1.3058e-05 3.575e-08 | d yr |
n | .2313004095304227 | 1.9405e-09 | deg/d |
Q | 3.051474463611201 | 1.7067e-08 | au |
|
| | Orbit Determination Parameters
Additional Information
|